Regional Weather Roundup
Issued by NWS

Home | Current Version | Previous Version | Graphics & Text | Print | Product List | Glossary Off
Versions: 1 2 3 4 5 6 7 8 9 10 11 12 13 14 15 16 17 18 19 20 21 22 23 24 25 26 27 28 29 30 31 32 33 34 35 36 37 38 39 40 41 42 43 44 45 46 47 48 49 50

000
ASUS43 KMPX 300301
RWRMN
WEATHER ROUNDUP FOR MINNESOTA
NATIONAL WEATHER SERVICE TWIN CITIES/CHANHASSEN MN
1000 PM CDT FRI APR 29 2016


NOTE: "FAIR" INDICATES FEW OR NO CLOUDS BELOW 12,000 FEET WITH NO
SIGNIFICANT WEATHER AND/OR OBSTRUCTIONS TO VISIBILITY. N/A MEANS
CURRENT SKY AND/OR WEATHER CONDITIONS ARE NOT AVAILABLE.

MNZ060>063-068>070-300400-
   Twin Cities Metro

CITY           SKY/WX    TMP DP  RH WIND       PRES   REMARKS
TWIN CITIES    PTCLDY    53  38  56 SE5       30.11S
ST PAUL        CLOUDY    50  42  74 CALM      30.12R
CRYSTAL        CLEAR     49  37  63 CALM      30.10S
BLAINE         CLEAR     48  37  66 CALM      30.11S
EDEN PRAIRIE   PTCLDY    50  38  63 CALM      30.10S
SOUTH ST PAUL  PTCLDY    50  40  67 CALM      30.11S
LAKE ELMO      FAIR      45  43  93 CALM      30.12S
$$
MNZ001>005-007-008-013>017-022>024-027-028-300400-
   Northwest Minnesota

CITY           SKY/WX    TMP DP  RH WIND       PRES   REMARKS
BEMIDJI        CLEAR     49  31  49 NE9       30.17R
HALLOCK        CLEAR     48  28  46 E6        30.20S
ROSEAU         CLEAR     46  34  61 E3        30.22S
WARROAD        CLEAR     48  34  57 NE8       30.23S
THIEF RVR FALL CLEAR     50  30  46 NE13      30.19S
CROOKSTON      CLEAR     52  34  50 NE9       30.18R
FOSSTON        CLEAR     48  30  49 NE10      30.17R
DETROIT LAKES  CLEAR     52  32  46 NE5       30.14S
MOORHEAD       PTCLDY    50  36  57 N7        30.13R
PARK RAPIDS    CLEAR     53  30  41 NE7       30.14R
MAHNOMEN       FAIR      51  32  47 NE10      30.14R
$$
MNZ006-009>011-018-025>026-300400-
   North Central Minnesota

CITY           SKY/WX    TMP DP  RH WIND       PRES   REMARKS
BAUDETTE       CLEAR     45  30  55 NE6       30.23R
FLAG ISLAND    CLEAR     52  28  40 NE5       30.23R
INTL FALLS     CLEAR     46  31  55 E7        30.24R
WASKISH        CLEAR     48  34  57 E6        30.21S
BIG FORK       CLEAR     46  30  53 E5        30.22R
LONGVILLE      CLEAR     50  30  46 NE5       30.16R
GRAND RAPIDS   CLEAR     46  28  49 E8        30.21R
CRANE LAKE     CLEAR     36  30  80 CALM      30.27S
ORR            CLEAR     43  28  56 CALM      30.22R
COOK           CLEAR     41  30  65 E3        30.24R
WALKER         CLOUDY    52  32  46 NE6       30.15S
$$
MNZ012-019>021-037-300400-
   Northeast Minnesota

CITY           SKY/WX    TMP DP  RH WIND       PRES   REMARKS
DULUTH         PTCLDY    40  28  62 NE8       30.21R
ELY            CLEAR     43  30  61 CALM      30.24S
HIBBING        CLEAR     39  30  70 CALM      30.21S
EVELETH        CLEAR     41  30  65 NE3       30.23S
DULUTH HARBOR  CLEAR     39  36  87 E6        30.23S
TWO HARBORS    CLEAR     41  30  65 N3        30.21S
SILVER BAY     CLEAR     34  28  80 CALM      30.22R
GRAND MARAIS     N/A     44  33  65 CALM      30.23F
G MARAIS ARPRT CLOUDY    39  28  65 N3        30.23S
$$
MNZ029>031-032-039>041-046>048-054>057-064-300400-
   West Central Minnesota

CITY           SKY/WX    TMP DP  RH WIND       PRES   REMARKS
FERGUS FALLS   CLEAR     52  36  54 CALM      30.09R
WHEATON        PTCLDY    48  41  76 CALM      30.12S
MORRIS         CLOUDY    50  37  62 E6        30.10S
ALEXANDRIA     CLEAR     47  32  56 E7        30.12S
ELBOW LAKE     FAIR      49  44  83 CALM      30.11S
WADENA         PTCLDY    48  32  53 NE3       30.13R
GLENWOOD       CLEAR     46  36  66 E7        30.12R
APPLETON       CLOUDY    45  39  81 NE6       30.09S
BENSON         CLOUDY    43  37  81 CALM      30.10S
ORTONVILLE     CLOUDY    46  39  76 NE6       30.09F
MADISON        CLOUDY    48  39  71 E5        30.09S
WILLMAR        FAIR      48  39  71 NE3       30.11S
$$
MNZ033>034-036-042>043-049>051-058-059-300400-
   Central Minnesota

CITY           SKY/WX    TMP DP  RH WIND       PRES   REMARKS
ST CLOUD       CLEAR     50  34  54 NE6       30.12R
SAUK CENTRE    FAIR      48  35  60 NE3       30.12R
PAYNESVILLE    CLEAR     44  37  77 CALM      30.11F
AITKIN         CLEAR     46  30  53 E7        30.16R
PINE RIVER     CLEAR     48  34  57 E8        30.18R
BRAINERD       CLEAR     49  29  46 E5        30.15R
STAPLES        CLEAR     48  30  49 CALM      30.13S
LONG PRAIRIE   FAIR      46  32  57 NE5       30.13R
LITTLE FALLS   PTCLDY    48  30  49 E3        30.13S
LITCHFIELD     CLOUDY    46  43  87 CALM      30.10F
BUFFALO        CLOUDY    46  38  72 CALM      30.11F
MAPLE LAKE     CLEAR     46  40  80 CALM      30.12R
HUTCHINSON     CLEAR     51  38  60 NE3       30.11S
$$
MNZ037-044-045-052-053-300400-
   East Central Minnesota

CITY           SKY/WX    TMP DP  RH WIND       PRES   REMARKS
PRINCETON      CLEAR     52  34  50 NE7       30.13R
MORA           CLEAR     48  32  53 NE5       30.17R
CAMBRIDGE      CLEAR     54  36  50 NE5       30.12R
RUSH CITY      MOCLDY    50  32  49 NE9       30.15R
MOOSE LAKE     CLEAR     43  30  61 NE8       30.18R
HINCKLEY       FAIR      46  32  57 NE12G18   30.17R
CLOQUET        CLEAR     43  28  56 NE6       30.20S
MCGREGOR       CLEAR     45  32  61 E7        30.19S
$$
MNZ071>073-080-081-089-090-097-098-300400-
   Southwest Minnesota

CITY           SKY/WX    TMP DP  RH WIND       PRES   REMARKS
MONTEVIDEO     CLOUDY    46  39  76 CALM      30.11S
GRANITE FALLS  CLOUDY    48  42  77 CALM      30.11S
CANBY          CLOUDY    49  44  84 SE5       30.10S
MARSHALL       PTCLDY    46  39  76 NE8       30.09S
REDWOOD FALLS  CLOUDY    49  37  63 E3        30.09S
OLIVIA         CLOUDY    48  39  71 NE3       30.09S
PIPESTONE      MOCLDY    46  39  76 E7        30.05S
WINDOM         CLOUDY    46  41  81 CALM      30.08R
WORTHINGTON    CLOUDY    44  41  89 E9        30.07R
JACKSON        CLOUDY    45  37  76 E9        30.07S
TRACY          CLOUDY    47  41  82 NE6       30.08S
SLAYTON        CLOUDY    46  43  87 NE6       30.07R
$$
MNZ065>067-074>077-082>085-091>093-300400-
   South Central Minnesota

CITY           SKY/WX    TMP DP  RH WIND       PRES   REMARKS
MANKATO        CLOUDY    48  39  71 E5        30.09F
NEW ULM        CLOUDY    48  41  76 SE6       30.09S
ST JAMES       CLOUDY    43  37  81 E6        30.09F
FAIRMONT       CLOUDY    45  36  70 E6        30.07S
GLENCOE        CLOUDY    48  42  79 CALM      30.09S
FARIBAULT      CLOUDY    46  39  76 CALM      30.11S
OWATONNA       CLOUDY    45  37  76 E6        30.10F
WASECA         CLOUDY    45  37  76 E6        30.11S
$$
MNZ078>079-086>088-094>096-300400-
   Southeast Minnesota

CITY           SKY/WX    TMP DP  RH WIND       PRES   REMARKS
ROCHESTER      PTCLDY    45  39  79 E8        30.10F
RED WING       CLOUDY    45  41  87 CALM      30.11S
STANTON        PTCLDY    49  39  69 SE5       30.10S
DODGE CENTER   CLOUDY    43  37  81 E7        30.10F
WINONA         CLOUDY    48  41  76 CALM      30.13R
AUSTIN         CLOUDY    46  39  76 E8        30.09S
PRESTON        CLOUDY    46  38  76 NE6       30.10F
$$
ABBREVIATIONS USED IN REMARKS
   TC - TEMPERATURES IN CELSIUS
  WCI - WIND CHILL INDEX
   HX - HEAT INDEX
  VSB - VISIBILITY
$$




USA.gov is the U.S. government's official web portal to all federal, state and local government web resources and services.